Stations météo

réclame
Mon MeteoGroup
Köln-Bonn, Allemagne (10513): Température de l'air & dewpoint: 12.07.2019 15:00:00 - 18.07.2019 15:00:00 (CEST)Köln-Bonn, Allemagne (10513): Température de l'air 5cm & Température de l'air -5cm: 12.07.2019 15:00:00 - 18.07.2019 15:00:00 (CEST)Köln-Bonn, Allemagne (10513): Température de l'air -20cm & Température de l'air -100cm: 12.07.2019 15:00:00 - 18.07.2019 15:00:00 (CEST)Köln-Bonn, Allemagne (10513): Vitesse du vent & gusts: 12.07.2019 15:00:00 - 18.07.2019 15:00:00 (CEST)Köln-Bonn, Allemagne (10513): Direction du vent: 12.07.2019 15:00:00 - 18.07.2019 15:00:00 (CEST)Köln-Bonn, Allemagne (10513): reduced air pressure: 12.07.2019 15:00:00 - 18.07.2019 15:00:00 (CEST)Köln-Bonn, Allemagne (10513): visibility: 12.07.2019 15:00:00 - 18.07.2019 15:00:00 (CEST)Köln-Bonn, Allemagne (10513): Ensoleillement: 12.07.2019 15:00:00 - 18.07.2019 15:00:00 (CEST)Köln-Bonn, Allemagne (10513): Quantités de précipitations: 12.07.2019 15:00:00 - 18.07.2019 15:00:00 (CEST)
Date & Time tt [°C] td [°C] tt 5cm [°C] tt -5cm [°C] tt -20cm [°C] tt -100cm [°C] ff [km/h] ff [knt] fx [km/h] fx [knt] dd ppp [hPa] vv [km] sd [min] rr [mm]
18.07.2019 15:00:00 25,3 11,1 26,9 32,1 22,6 18,9 13 7 31 17 WNW 1010,9 35 15 0,0
18.07.2019 14:00:00 26,2 10,8 29,1 33,4 21,6 18,9 15 8 29 16 W 1010,9 35 42 0,0
18.07.2019 13:00:00 25,9 11,7 30,4 31,7 20,5 18,9 11 6 22 12 W 1011,5 10 37 0,0
18.07.2019 12:00:00 24,2 10,4 29,9 29,6 19,4 18,9 8 4 16 9 - 1011,6 10 60 0,0
18.07.2019 11:00:00 22,0 11,1 26,0 25,5 18,7 18,9 9 5 15 8 SSE 1011,9 10 54 0,0
18.07.2019 10:00:00 19,7 13,3 21,9 21,3 18,3 18,8 8 4 15 8 SE 1012,1 28 50 0,0
18.07.2019 09:00:00 16,6 12,3 17,9 17,9 18,2 18,8 8 5 11 6 ESE 1012,4 27 35 0,0
18.07.2019 08:00:00 14,7 11,9 14,9 16,4 18,4 18,8 5 3 11 6 E 1012,5 10 10 0,0
18.07.2019 07:00:00 13,4 11,5 12,4 15,5 18,6 18,8 4 2 11 6 - 1012,6 10 0 0,0
18.07.2019 06:00:00 13,0 11,3 11,9 15,5 18,9 18,8 4 2 11 6 - 1012,9 10 0 0,0
18.07.2019 05:00:00 13,3 11,6 12,4 15,9 19,2 18,8 5 3 11 6 ENE 1013,0 10 0 0,0
18.07.2019 04:00:00 13,0 11,6 12,2 16,2 19,5 18,8 9 5 11 6 E 1013,2 20 0 0,0
18.07.2019 03:00:00 12,6 11,5 11,3 16,4 19,9 18,8 9 5 11 6 E 1013,7 20 0 0,0
18.07.2019 02:00:00 13,6 11,7 12,0 16,9 20,3 18,8 2 1 9 5 - 1013,9 10 0 0,0
18.07.2019 01:00:00 13,2 11,4 11,1 17,9 20,8 18,8 4 2 8 4 - 1013,9 10 0 0,0
18.07.2019 00:00:00 15,8 12,2 14,3 18,9 21,2 18,8 4 2 8 4 - 1013,9 10 0 0,0
17.07.2019 23:00:00 15,4 12,2 13,1 19,8 21,6 18,8 8 4 8 4 ENE 1014,1 10 0 0,0
17.07.2019 22:00:00 15,5 12,5 13,7 21,6 21,9 18,9 5 3 9 5 E 1014,2 10 0 0,0
17.07.2019 21:00:00 18,7 12,7 17,1 23,9 22,0 18,9 5 3 13 7 E 1014,0 10 39 0,0
17.07.2019 20:00:00 20,2 12,1 21,1 26,1 21,8 18,9 5 3 16 8 NNE 1013,8 10 51 0,0
17.07.2019 19:00:00 20,2 11,9 21,3 28,0 21,3 18,9 9 5 18 10 ENE 1014,0 10 50 0,0
17.07.2019 18:00:00 21,1 12,3 24,6 28,6 20,7 18,9 8 4 20 11 - 1014,6 10 43 0,0
17.07.2019 17:00:00 20,7 12,2 27,3 28,0 19,9 18,9 9 5 21 11 - 1015,0 10 27 0,0
17.07.2019 16:00:00 19,7 11,8 24,8 26,0 19,3 18,9 9 5 16 9 ENE 1015,5 13 2 0,0
17.07.2019 15:00:00 19,0 11,6 22,1 23,9 18,8 18,9 7 4 15 8 N 1015,8 11 0 0,0
17.07.2019 14:00:00 17,9 11,2 20,9 22,7 18,3 18,9 9 5 18 10 N 1016,1 10 0 0,0
17.07.2019 13:00:00 17,7 11,7 21,1 21,6 17,9 18,9 8 4 15 8 N 1016,4 10 0 0,0
17.07.2019 12:00:00 16,6 11,3 18,8 19,7 17,6 18,9 5 3 11 6 ENE 1016,5 10 0 0,0
17.07.2019 11:00:00 15,7 11,4 17,1 18,3 17,4 18,9 2 1 8 4 - 1016,5 10 0 0,0
17.07.2019 10:00:00 14,5 11,5 15,4 17,0 17,3 18,9 2 1 8 4 - 1016,7 8 0 0,0
17.07.2019 09:00:00 13,5 11,4 14,4 16,3 17,2 18,9 5 3 8 4 ESE 1016,7 8 0 0,0
17.07.2019 08:00:00 12,4 11,0 13,2 15,0 17,3 18,9 4 2 8 4 SSE 1016,8 7 0 0,0
17.07.2019 07:00:00 10,9 10,0 11,2 14,0 17,6 18,9 2 1 11 6 - 1016,8 7 0 0,0
17.07.2019 06:00:00 9,4 9,0 9,5 13,3 17,9 18,9 5 3 8 4 SE 1017,3 12 0 0,0
17.07.2019 05:00:00 9,5 9,0 7,1 13,6 18,3 18,9 4 2 8 4 - 1017,1 10 0 0,0
17.07.2019 04:00:00 10,1 9,4 8,0 14,3 18,7 18,9 7 4 9 5 SE 1017,3 40 0 0,0
17.07.2019 03:00:00 11,2 10,5 9,0 14,9 19,2 18,9 9 5 9 5 ESE 1017,4 40 0 0,0
17.07.2019 02:00:00 11,3 10,3 9,7 15,7 19,6 18,9 4 2 11 6 - 1017,6 10 0 0,0
17.07.2019 01:00:00 12,0 10,5 10,6 16,6 20,1 19,0 8 4 9 5 E 1017,6 45 0 0,0
17.07.2019 00:00:00 13,6 11,0 11,6 17,7 20,5 19,0 4 2 8 4 - 1017,7 10 0 0,0
16.07.2019 23:00:00 13,5 11,0 11,8 19,1 20,9 19,0 5 3 11 6 NE 1017,7 10 0 0,0
16.07.2019 22:00:00 16,0 11,4 14,2 20,9 21,2 19,0 5 3 15 8 N 1017,6 10 12 0,0
16.07.2019 21:00:00 17,9 10,9 17,8 22,9 21,3 19,0 8 4 15 8 NNW 1017,5 10 26 0,0
16.07.2019 20:00:00 19,1 10,7 20,0 25,1 21,2 19,0 11 6 18 10 NNW 1017,6 30 50 0,0
16.07.2019 19:00:00 19,7 9,8 23,2 27,0 20,7 19,1 11 6 21 11 NNW 1017,7 30 60 0,0
16.07.2019 18:00:00 20,1 10,2 24,8 28,5 19,9 19,1 9 5 20 11 NNW 1018,0 10 60 0,0
16.07.2019 17:00:00 18,9 9,4 24,8 28,2 19,0 19,1 9 5 23 12 WNW 1018,5 10 60 0,0
16.07.2019 16:00:00 18,6 9,9 23,7 25,6 18,2 19,1 11 6 35 19 W 1018,9 10 30 0,0
16.07.2019 15:00:00 17,9 10,3 21,5 22,6 17,7 19,1 8 4 23 13 NW 1019,1 10 2 0,0
16.07.2019 14:00:00 16,3 9,3 19,7 20,2 17,3 19,1 11 6 18 10 NNW 1019,4 10 0 0,0
16.07.2019 13:00:00 15,9 9,5 17,8 19,0 17,0 19,2 10 6 21 11 WNW 1019,8 27 0 0,0
16.07.2019 12:00:00 15,7 9,4 17,1 17,5 16,8 19,2 13 7 18 10 NW 1019,9 30 0 0,0
16.07.2019 11:00:00 15,3 9,5 16,7 16,7 16,6 19,2 11 6 18 10 W 1019,9 30 0 0,0
16.07.2019 10:00:00 14,2 9,6 15,3 15,9 16,5 19,2 8 4 15 8 WNW 1019,9 25 0 0,0
16.07.2019 09:00:00 13,1 9,8 13,7 14,8 16,5 19,2 3 2 5 3 SE 1020,1 25 0 0,0
16.07.2019 08:00:00 12,3 9,7 12,8 14,2 16,6 19,2 4 2 5 3 - 1019,8 10 0 0,0
16.07.2019 07:00:00 11,2 9,3 10,9 13,2 16,8 19,2 2 1 12 6 SSW 1019,7 10 0 0,0
16.07.2019 06:00:00 10,3 9,2 9,3 12,8 17,1 19,3 10 5 15 8 N 1019,4 28 0 0,0
16.07.2019 05:00:00 10,2 9,0 8,2 13,5 17,4 19,3 9 5 13 7 NNW 1019,3 30 0 0,0
16.07.2019 04:00:00 11,8 9,9 10,1 14,4 17,6 19,3 13 7 16 9 NNW 1019,4 45 0 0,0
16.07.2019 03:00:00 12,9 10,2 12,3 14,9 17,8 19,3 9 5 22 12 NNW 1019,7 10 0 0,0
16.07.2019 02:00:00 13,0 10,7 11,8 15,3 18,0 19,3 4 2 13 7 - 1019,6 10 0 0,0
16.07.2019 01:00:00 13,9 10,6 12,9 15,8 18,2 19,3 2 1 13 7 - 1019,4 10 0 0,0
16.07.2019 00:00:00 14,9 10,5 14,1 16,3 18,4 19,3 2 1 9 5 - 1019,5 10 0 0,0
15.07.2019 23:00:00 14,9 10,7 13,9 16,8 18,5 19,4 5 3 8 4 - 1019,5 10 0 0,0
15.07.2019 22:00:00 15,5 11,4 15,0 17,3 18,6 19,4 4 2 9 5 ENE 1019,6 10 0 0,0
15.07.2019 21:00:00 15,9 10,5 15,7 17,8 18,7 19,4 4 2 11 6 - 1019,5 10 0 0,0
15.07.2019 20:00:00 16,1 10,2 16,5 18,1 18,8 19,4 5 3 18 10 N 1019,5 10 0 0,0
15.07.2019 19:00:00 16,2 10,1 16,6 18,8 18,8 19,4 13 7 20 11 N 1019,6 25 0 0,0
15.07.2019 18:00:00 16,8 10,0 18,2 19,7 18,7 19,4 13 7 22 12 NNW 1019,6 10 0 0,0
15.07.2019 17:00:00 16,5 9,9 18,5 19,0 18,6 19,4 9 5 22 12 N 1019,9 10 0 0,0
15.07.2019 16:00:00 16,0 9,5 17,6 18,6 18,6 19,5 9 5 21 11 NNW 1019,9 10 0 0,0
15.07.2019 15:00:00 15,8 9,6 17,1 18,6 18,5 19,5 13 7 21 11 WNW 1020,0 18 0 0,0
15.07.2019 14:00:00 15,6 9,7 17,7 18,4 18,5 19,5 8 5 24 13 NW 1020,1 14 0 0,0
15.07.2019 13:00:00 15,3 9,2 16,7 18,7 18,4 19,5 13 7 22 12 NNW 1020,2 10 0 0,0
15.07.2019 12:00:00 15,7 9,3 17,5 18,7 18,2 19,5 13 7 22 12 N 1020,0 10 0 0,0
15.07.2019 11:00:00 15,6 8,7 17,6 19,1 18,0 19,5 13 7 24 13 NNW 1019,9 38 0 0,0
15.07.2019 10:00:00 15,7 9,0 18,0 18,3 17,9 19,5 15 8 21 11 NNW 1019,8 45 0 0,0
15.07.2019 09:00:00 15,1 10,6 16,6 16,8 17,9 19,6 10 5 16 9 N 1019,7 40 0 0,0
15.07.2019 08:00:00 13,9 10,4 14,5 15,9 18,0 19,6 11 6 18 10 NNW 1019,7 10 0 0,0
15.07.2019 07:00:00 13,5 10,4 13,8 15,6 18,1 19,6 9 5 16 9 NNW 1019,3 10 0 0,0
15.07.2019 06:00:00 13,5 10,4 12,9 15,7 18,3 19,6 10 6 15 8 NNW 1018,9 50 0 0,0
15.07.2019 05:00:00 14,5 10,9 14,0 16,0 18,4 19,6 8 4 16 9 N 1019,1 10 0 0,0
15.07.2019 04:00:00 14,8 10,9 14,4 16,3 18,6 19,6 11 6 16 9 NW 1019,2 10 0 0,0
15.07.2019 03:00:00 15,3 11,2 14,9 16,6 18,7 19,6 9 5 15 8 NNE 1019,3 10 0 0,0
15.07.2019 02:00:00 15,2 11,7 14,8 16,8 18,9 19,6 8 4 13 7 NNE 1019,5 60 0 0,0
15.07.2019 01:00:00 15,6 11,9 15,1 17,0 19,0 19,7 4 2 11 6 NE 1019,6 10 0 0,0
15.07.2019 00:00:00 15,4 11,8 14,8 17,2 19,2 19,7 6 4 9 5 N 1019,5 65 0 0,0
14.07.2019 23:00:00 15,7 11,9 15,0 17,5 19,4 19,7 4 2 11 6 NE 1019,6 10 0 0,0
14.07.2019 22:00:00 16,3 10,7 15,8 17,8 19,6 19,7 4 2 13 7 NE 1019,4 10 0 0,0
14.07.2019 21:00:00 16,8 10,1 16,4 18,4 19,8 19,7 9 5 15 8 N 1019,3 70 0 0,0
14.07.2019 20:00:00 17,3 9,6 17,3 18,9 19,9 19,7 9 5 18 10 N 1019,3 70 0 0,0
14.07.2019 19:00:00 17,8 9,4 18,4 19,5 20,0 19,7 14 8 24 13 N 1019,0 45 0 0,0
14.07.2019 18:00:00 17,9 9,6 18,6 20,4 20,0 19,8 13 7 26 14 N 1019,1 10 0 0,0
14.07.2019 17:00:00 18,0 9,5 19,6 20,7 19,9 19,8 11 6 26 14 N 1019,2 10 0 0,0
14.07.2019 16:00:00 18,0 9,1 19,7 21,4 19,7 19,8 16 9 25 14 N 1019,2 40 0 0,0
14.07.2019 15:00:00 18,4 9,2 21,1 21,7 19,4 19,8 13 7 27 14 - 1019,3 10 3 0,0
14.07.2019 14:00:00 17,3 9,0 19,6 20,7 19,1 19,8 13 7 24 13 NNW 1019,6 10 0 0,0
14.07.2019 13:00:00 16,9 8,2 19,9 20,0 18,9 19,8 11 6 22 12 N 1019,9 10 0 0,0
14.07.2019 12:00:00 16,6 7,9 19,0 19,9 18,6 19,8 11 6 22 12 N 1019,9 10 1 0,0
14.07.2019 11:00:00 16,0 8,5 18,5 19,1 18,4 19,9 15 8 24 13 NNW 1020,0 10 0 0,0
14.07.2019 10:00:00 15,7 8,7 18,2 18,0 18,3 19,9 15 8 28 15 N 1019,8 10 12 0,0
14.07.2019 09:00:00 14,9 9,1 16,4 16,6 18,4 19,9 21 11 29 16 NNW 1019,5 35 5 0,0
14.07.2019 08:00:00 14,4 9,4 14,7 15,7 18,5 19,9 13 7 28 15 N 1019,1 10 0 0,0
14.07.2019 07:00:00 14,4 9,2 14,1 15,7 18,7 19,9 13 7 26 14 NNW 1019,0 10 0 0,0
14.07.2019 06:00:00 14,3 10,7 13,9 15,9 19,0 19,9 5 3 18 10 NNW 1019,2 10 0 0,0
14.07.2019 05:00:00 14,7 10,7 14,3 16,1 19,2 19,9 9 5 20 11 NW 1019,1 10 0 0,0
14.07.2019 04:00:00 14,6 11,2 14,3 16,3 19,4 19,9 12 7 22 12 NW 1019,2 40 0 0,0
14.07.2019 03:00:00 14,6 11,6 14,3 16,3 19,8 19,9 10 6 16 9 NNW 1019,5 40 0 0,0
14.07.2019 02:00:00 15,1 11,4 14,2 16,7 20,1 19,9 11 6 25 14 NNW 1019,4 10 0 0,0
14.07.2019 01:00:00 16,1 11,1 15,4 17,3 20,4 19,9 16 9 29 16 NNW 1019,4 50 0 0,0
14.07.2019 00:00:00 17,3 12,4 16,6 18,1 20,7 19,9 15 8 29 16 NNW 1019,2 10 0 0,0
13.07.2019 23:00:00 17,6 13,4 17,0 18,7 21,1 20,0 11 6 29 16 NNW 1018,9 10 0 0,0
13.07.2019 22:00:00 18,3 13,1 17,5 19,3 21,4 20,0 13 7 25 14 NNW 1018,4 10 0 0,0
13.07.2019 21:00:00 18,7 13,4 18,2 20,5 21,6 20,0 11 6 31 17 N 1017,8 10 1 0,0
13.07.2019 20:00:00 19,6 15,4 18,1 21,6 21,8 20,0 15 8 26 14 W 1017,3 10 3 0,2
13.07.2019 19:00:00 19,6 14,0 19,9 22,7 21,7 20,0 13 7 29 15 W 1017,4 45 7 0,0
13.07.2019 18:00:00 21,1 13,6 22,1 24,7 21,4 20,0 13 7 25 14 WNW 1017,4 10 30 0,0
13.07.2019 17:00:00 21,2 13,7 23,3 25,0 21,0 20,0 15 8 24 13 WNW 1017,5 10 38 0,0
13.07.2019 16:00:00 20,3 13,7 22,4 24,3 20,6 20,0 11 6 24 13 W 1017,8 10 20 0,0
13.07.2019 15:00:00 19,7 14,0 22,2 21,9 20,3 20,0 13 7 26 14 W 1018,2 10 0 0,0
13.07.2019 14:00:00 18,8 13,4 20,2 22,9 19,9 20,0 16 9 29 16 WNW 1018,3 30 13 0,0
13.07.2019 13:00:00 18,6 14,1 22,9 21,3 19,7 20,0 20 11 34 18 N 1018,1 17 7 0,0
13.07.2019 12:00:00 18,3 13,6 18,6 20,5 19,4 20,0 21 11 35 19 NW 1017,8 17 4 0,0
13.07.2019 11:00:00 16,9 14,2 16,5 19,5 19,3 20,0 21 11 26 14 WNW 1017,6 10 2 0,0
13.07.2019 10:00:00 16,3 14,4 16,2 17,6 19,3 20,0 13 7 16 9 WNW 1017,4 10 0 0,5
13.07.2019 09:00:00 15,3 14,4 15,1 16,9 19,4 20,0 16 9 23 13 WNW 1017,1 7 0 0,0
13.07.2019 08:00:00 15,1 14,0 14,8 16,8 19,6 20,0 9 5 21 11 W 1016,6 9 0 0,2
13.07.2019 07:00:00 14,9 13,6 14,6 16,6 19,8 20,0 11 6 21 11 W 1016,2 9 0 0,0
13.07.2019 06:00:00 14,9 13,6 14,4 16,3 20,2 20,0 11 6 19 10 W 1016,1 12 0 0,0
13.07.2019 05:00:00 14,0 12,8 12,8 16,2 20,6 20,0 10 6 18 10 W 1015,7 17 0 0,0
13.07.2019 04:00:00 14,5 13,2 13,7 16,9 21,0 20,0 11 6 16 9 NNW 1015,6 10 0 0,0
13.07.2019 03:00:00 14,6 13,2 14,0 17,4 21,4 20,0 10 6 23 13 NW 1015,5 30 0 0,0
13.07.2019 02:00:00 15,6 13,8 14,8 18,3 21,8 20,0 16 9 24 13 NW 1015,2 10 0 0,0
13.07.2019 01:00:00 15,3 14,3 15,1 18,6 22,3 20,0 8 4 13 7 W 1014,8 30 0 0,0
13.07.2019 00:00:00 15,2 14,0 14,8 18,7 22,9 20,0 9 5 18 10 NW 1014,8 10 0 0,1
12.07.2019 23:00:00 14,9 13,7 14,4 19,3 23,4 20,0 15 8 39 21 WNW 1014,5 10 0 11,5
12.07.2019 22:00:00 17,2 14,5 16,8 22,7 23,7 20,0 21 11 41 22 WNW 1013,6 10 0 0,0
12.07.2019 21:00:00 18,1 12,3 17,6 23,9 23,9 20,0 28 15 40 21 WNW 1012,5 10 0 0,1
12.07.2019 20:00:00 19,8 13,9 20,0 25,2 24,1 20,0 15 8 31 17 W 1011,6 10 7 0,0
12.07.2019 19:00:00 20,4 13,9 21,3 25,8 24,2 20,0 23 12 38 21 WNW 1011,3 50 0 0,0
12.07.2019 18:00:00 20,8 12,1 21,5 26,9 24,2 20,0 24 13 42 23 W 1010,9 10 1 0,0
12.07.2019 17:00:00 21,9 13,6 23,1 28,2 24,0 20,1 23 13 53 28 WNW 1010,6 30 1 0,0
12.07.2019 16:00:00 23,9 12,5 26,2 30,3 23,6 20,1 32 18 53 28 WNW 1009,9 35 27 0,0
12.07.2019 15:00:00 26,5 10,7 32,5 29,9 23,0 20,1 18 10 29 16 WNW 1009,5 10 27 0,0

tt = Température de l'air
td = dewpoint
tt 5cm = Température de l'air 5cm
tt -5cm = Température de l'air -5cm
tt -20cm = Température de l'air -20cm
tt -100cm = Température de l'air -100cm
ff = Vitesse du vent
fx = gusts
dd = Direction du vent
ppp = reduced air pressure
vv = visibility
sd = Ensoleillement
rr = Quantités de précipitations

stations d'obs. à proximité